N5PRN Weather Reports


time (UTC)temp
C
wind
direction
speed
KPH
gust
KPH
rain 1hr
cm
rain 24hr
cm
rain mn
cm
humidity
%
barometer
mb
20260504214840 25 217 3.2 3.2 0.00 0.00 0.00 58 1012.5
20260504214337 24 208 8.0 9.7 0.00 0.00 0.00 58 1012.6
20260504213834 24 137 6.4 8.0 0.00 0.00 0.00 58 1012.9
20260504213330 24 253 11.3 14.5 0.00 0.00 0.00 57 1012.7
20260504212827 24 207 1.6 3.2 0.00 0.00 0.00 58 1012.8
20260504212323 24 223 4.8 8.0 0.00 0.00 0.00 56 1012.9
20260504211821 25 256 3.2 3.2 0.00 0.00 0.00 56 1012.8
20260504211317 26 170 8.0 9.7 0.00 0.00 0.00 54 1012.9
20260504210815 26 154 6.4 8.0 0.00 0.00 0.00 54 1012.8
20260504210312 25 241 1.6 1.6 0.00 0.00 0.00 54 1013.2
20260504205809 26 142 4.8 4.8 0.00 0.00 0.00 54 1013.1
20260504205306 26 169 4.8 8.0 0.00 0.00 0.00 55 1013.0
20260504204804 25 217 3.2 8.0 0.00 0.00 0.00 56 1013.3
20260504204256 25 127 4.8 8.0 0.00 0.00 0.00 54 1013.4
20260504203756 25 177 12.9 16.1 0.00 0.00 0.00 53 1013.2
20260504203253 25 196 4.8 4.8 0.00 0.00 0.00 54 1013.3
20260504202753 25 179 1.6 3.2 0.00 0.00 0.00 57 1013.5
20260504202250 25 225 4.8 4.8 0.00 0.00 0.00 55 1013.5
20260504201747 26 260 4.8 8.0 0.00 0.00 0.00 53 1013.8
20260504201244 25 198 1.6 1.6 0.00 0.00 0.00 54 1014.0
20260504200742 25 278 1.6 3.2 0.00 0.00 0.00 59 1014.0
20260504200238 25 188 3.2 4.8 0.00 0.00 0.00 57 1014.2
20260504195735 25 243 6.4 8.0 0.00 0.00 0.00 54 1014.2
20260504195230 25 156 3.2 4.8 0.00 0.00 0.00 54 1014.4
20260504194728 25 231 1.6 3.2 0.00 0.00 0.00 56 1014.4
20260504194224 25 211 3.2 3.2 0.00 0.00 0.00 55 1014.5
20260504193720 25 190 8.0 12.9 0.00 0.00 0.00 52 1014.4
20260504193218 25 234 8.0 11.3 0.00 0.00 0.00 51 1014.5
20260504192716 25 221 1.6 1.6 0.00 0.00 0.00 53 1014.6
20260504192214 24 181 8.0 11.3 0.00 0.00 0.00 56 1014.7
20260504191712 25 235 9.7 11.3 0.00 0.00 0.00 51 1014.9
20260504191209 25 235 1.6 1.6 0.00 0.00 0.00 52 1014.8
20260504190704 25 216 4.8 8.0 0.00 0.00 0.00 50 1015.0
20260504190201 24 181 3.2 3.2 0.00 0.00 0.00 50 1015.2
20260504185657 25 252 4.8 4.8 0.00 0.00 0.00 52 1015.1
20260504185153 25 174 8.0 9.7 0.00 0.00 0.00 50 1015.3
20260504184650 24 182 6.4 8.0 0.00 0.00 0.00 49 1015.3
20260504184145 24 161 4.8 8.0 0.00 0.00 0.00 50 1015.5
20260504183642 23 230 14.5 20.9 0.00 0.00 0.00 47 1015.6
20260504183139 24 208 8.0 9.7 0.00 0.00 0.00 48 1015.7
20260504182637 23 146 8.0 9.7 0.00 0.00 0.00 49 1015.6
20260504182134 24 204 12.9 17.7 0.00 0.00 0.00 49 1015.6
20260504181632 24 146 4.8 4.8 0.00 0.00 0.00 51 1015.8
20260504181129 24 177 1.6 3.2 0.00 0.00 0.00 50 1015.6
20260504180629 24 143 4.8 8.0 0.00 0.00 0.00 52 1015.7
20260504180127 24 177 4.8 4.8 0.00 0.00 0.00 50 1015.9
20260504175623 23 160 3.2 8.0 0.00 0.00 0.00 50 1015.8
20260504175120 24 176 3.2 3.2 0.00 0.00 0.00 53 1015.8
20260504174619 23 195 1.6 3.2 0.00 0.00 0.00 53 1016.0
20260504174114 23 225 12.9 16.1 0.00 0.00 0.00 50 1016.1
20260504173612 23 243 1.6 3.2 0.00 0.00 0.00 55 1016.1
20260504173109 23 144 9.7 9.7 0.00 0.00 0.00 51 1016.1
20260504172605 23 215 8.0 9.7 0.00 0.00 0.00 51 1016.0
20260504172102 23 248 4.8 4.8 0.00 0.00 0.00 52 1016.4
20260504171558 23 193 4.8 9.7 0.00 0.00 0.00 52 1016.4
20260504171056 23 149 4.8 4.8 0.00 0.00 0.00 51 1016.5
20260504170551 23 183 6.4 9.7 0.00 0.00 0.00 52 1016.7
20260504150936 22 196 3.2 3.2 0.00 0.00 0.00 62 1017.0
20260504150432 21 238 4.8 8.0 0.00 0.00 0.00 66 1016.9
20260504140859 18 190 3.2 4.8 0.00 0.00 0.00 78 1017.5
20260504140354 18 226 6.4 9.7 0.00 0.00 0.00 78 1017.4
20260504130818 12 217 0.0 0.0 0.00 0.00 0.00 99 1017.3
20260504130314 12 213 0.0 0.0 0.00 0.00 0.00 99 1017.2
20260504120237 10 231 0.0 0.0 0.00 0.00 0.00 99 1016.9
20260504110705 10 145 0.0 0.0 0.00 0.00 0.00 99 1016.7
20260504110201 10 145 0.0 0.0 0.00 0.00 0.00 99 1016.6
20260504100119 10 145 0.0 0.0 0.00 0.00 0.00 99 1016.3
20260504081512 11 144 0.0 0.0 0.00 0.00 0.00 99 1016.6
20260504081008 11 144 0.0 0.0 0.00 0.00 0.00 99 1016.7
20260504080504 11 144 0.0 0.0 0.00 0.00 0.00 99 1017.0
20260504050317 13 158 0.0 0.0 0.00 0.00 0.00 99 1017.7
20260504045808 13 170 0.0 0.0 0.00 0.00 0.00 99 1017.9
20260504045304 13 170 0.0 0.0 0.00 0.00 0.00 99 1018.0
20260504044800 13 170 0.0 0.0 0.00 0.00 0.00 99 1018.0
20260504044258 13 183 0.0 0.0 0.00 0.00 0.00 99 1018.1
20260504043755 13 183 0.0 0.0 0.00 0.00 0.00 99 1018.2
20260504043251 13 224 0.0 0.0 0.00 0.00 0.00 99 1018.1
20260504042750 13 224 0.0 0.0 0.00 0.00 0.00 99 1018.2
20260504042245 13 224 0.0 0.0 0.00 0.00 0.00 99 1018.1
20260504041742 13 224 0.0 0.0 0.00 0.00 0.00 98 1018.1
20260504041238 13 224 0.0 0.0 0.00 0.00 0.00 99 1018.2
20260504040734 13 224 0.0 0.0 0.00 0.00 0.00 98 1018.2
20260504040232 13 224 0.0 0.0 0.00 0.00 0.00 99 1018.2
20260504035728 13 224 0.0 0.0 0.00 0.00 0.00 98 1018.3
20260504035225 13 224 0.0 0.0 0.00 0.00 0.00 98 1018.3
20260504034723 13 224 0.0 0.0 0.00 0.00 0.00 97 1018.1
20260504034220 14 224 0.0 0.0 0.00 0.00 0.00 97 1018.0
20260504033718 14 224 0.0 0.0 0.00 0.00 0.00 97 1018.2
20260504033214 14 224 0.0 0.0 0.00 0.00 0.00 97 1018.4
20260504032711 14 224 0.0 0.0 0.00 0.00 0.00 96 1018.4
20260504032203 14 224 0.0 0.0 0.00 0.00 0.00 96 1018.4
20260504031659 14 224 0.0 0.0 0.00 0.00 0.00 97 1018.3
20260504031155 14 224 0.0 0.0 0.00 0.00 0.00 96 1018.4
20260504030652 14 224 0.0 0.0 0.00 0.00 0.00 96 1018.1
20260504030149 14 224 0.0 0.0 0.00 0.00 0.00 95 1018.1
20260504025645 14 224 0.0 0.0 0.00 0.00 0.00 95 1018.1
20260504025142 15 224 0.0 0.0 0.00 0.00 0.00 94 1018.2
20260504024634 15 224 0.0 0.0 0.00 0.00 0.00 94 1017.9
20260504024130 15 224 0.0 0.0 0.00 0.00 0.00 94 1018.1
20260504023621 15 224 0.0 0.0 0.00 0.00 0.00 93 1017.9
20260504023117 15 224 0.0 0.0 0.00 0.00 0.00 92 1018.0
20260504022614 15 224 0.0 0.0 0.00 0.00 0.00 92 1018.2
20260504022110 15 224 0.0 0.0 0.00 0.00 0.00 91 1017.6
20260504021608 15 224 0.0 0.0 0.00 0.00 0.00 91 1017.8
20260504021104 15 224 0.0 0.0 0.00 0.00 0.00 90 1017.8
20260504020602 16 224 0.0 0.0 0.00 0.00 0.00 90 1017.7
20260504020057 16 224 0.0 0.0 0.00 0.00 0.00 89 1017.7
20260504015554 16 224 0.0 0.0 0.00 0.00 0.00 89 1017.5
20260504015050 16 224 0.0 0.0 0.00 0.00 0.00 88 1017.5
20260504014546 16 224 0.0 0.0 0.00 0.00 0.00 88 1017.4
20260504014044 16 224 0.0 0.0 0.00 0.00 0.00 87 1017.6
20260504013541 16 224 0.0 0.0 0.00 0.00 0.00 86 1017.4
20260504013038 17 224 0.0 0.0 0.00 0.00 0.00 86 1017.2
20260504012535 17 224 0.0 0.0 0.00 0.00 0.00 85 1017.3
20260504012033 17 224 0.0 0.0 0.00 0.00 0.00 83 1017.3
20260504011529 17 224 0.0 0.0 0.00 0.00 0.00 82 1017.3
20260504011025 17 224 0.0 0.0 0.00 0.00 0.00 82 1017.0
20260504010516 18 234 0.0 0.0 0.00 0.00 0.00 80 1017.2
20260504010012 18 234 0.0 0.0 0.00 0.00 0.00 78 1017.1
20260504005509 18 234 0.0 0.0 0.00 0.00 0.00 77 1017.1
20260504005006 18 234 0.0 0.0 0.00 0.00 0.00 75 1017.3
20260504004504 19 234 0.0 0.0 0.00 0.00 0.00 75 1017.0
20260504004001 19 235 0.0 0.0 0.00 0.00 0.00 75 1016.7
20260504003457 20 235 0.0 0.0 0.00 0.00 0.00 72 1017.0
20260504002954 20 235 0.0 0.0 0.00 0.00 0.00 72 1016.9
20260504002451 20 235 0.0 0.0 0.00 0.00 0.00 68 1017.1
20260504001948 20 235 0.0 0.0 0.00 0.00 0.00 68 1017.1
20260504001445 21 235 0.0 0.0 0.00 0.00 0.00 69 1017.0
20260504000942 21 235 0.0 0.0 0.00 0.00 0.00 66 1016.9
20260504000439 21 235 0.0 0.0 0.00 0.00 0.00 64 1017.0
20260503235937 21 235 0.0 0.0 0.00 0.00 0.00 61 1017.1
20260503235434 22 233 0.0 0.0 0.00 0.00 0.00 61 1017.2
20260503234931 22 230 0.0 0.0 0.00 0.00 0.00 59 1017.3
20260503234429 22 231 0.0 0.0 0.00 0.00 0.00 61 1017.3
20260503233927 22 239 0.0 0.0 0.00 0.00 0.00 61 1017.3
20260503233423 22 239 0.0 0.0 0.00 0.00 0.00 59 1017.2
20260503232919 22 238 0.0 0.0 0.00 0.00 0.00 58 1017.1
20260503232417 23 238 0.0 0.0 0.00 0.00 0.00 58 1017.2
20260503231914 23 238 0.0 0.0 0.00 0.00 0.00 56 1017.5
20260503231412 23 233 0.0 0.0 0.00 0.00 0.00 53 1017.2
20260503230908 24 234 0.0 0.0 0.00 0.00 0.00 48 1017.4
20260503230404 24 242 0.0 0.0 0.00 0.00 0.00 53 1017.3
20260503225902 25 244 0.0 0.0 0.00 0.00 0.00 48 1017.5
20260503225357 25 255 0.0 0.0 0.00 0.00 0.00 48 1017.5
20260503224854 25 210 1.6 1.6 0.00 0.00 0.00 44 1017.5
20260503224351 25 234 1.6 1.6 0.00 0.00 0.00 47 1017.6
20260503223849 26 221 0.0 0.0 0.00 0.00 0.00 47 1017.7
20260503223346 26 257 0.0 0.0 0.00 0.00 0.00 43 1017.5
20260503222841 26 91 0.0 1.6 0.00 0.00 0.00 43 1017.8
20260503222341 26 270 1.6 1.6 0.00 0.00 0.00 47 1017.6
20260503221838 26 278 0.0 0.0 0.00 0.00 0.00 48 1017.7
20260503221337 27 12 3.2 4.8 0.00 0.00 0.00 42 1017.9
20260503220832 26 270 1.6 1.6 0.00 0.00 0.00 47 1017.8
20260503220330 26 272 0.0 0.0 0.00 0.00 0.00 41 1017.8
20260503215827 25 253 0.0 0.0 0.00 0.00 0.00 46 1017.7
20260503215324 26 199 3.2 3.2 0.00 0.00 0.00 43 1017.8